Weather History for KPEQ - March, 2013

Change the Weather History Date:

Thursday, March 21, 2013

  Actual Average (KFST) Record (KFST)
Temperature  
Mean Temperature 64 °F -  
Max Temperature 87 °F 70 °F - (-1)
Min Temperature 41 °F 45 °F - (-1)
Degree Days  
Heating Degree Days 2    
Growing Degree Days 14 (Base 50)    
Moisture  
Dew Point 31 °F    
Average Humidity 46    
Maximum Humidity 74    
Minimum Humidity 12    
Precipitation  
Precipitation 0.00 in - - ()
Sea Level Pressure  
Sea Level Pressure 29.75 in    
Wind  
Wind Speed 7 mph (SW)    
Max Wind Speed 29 mph    
Max Gust Speed 39 mph    
Visibility 10 miles    
Events      
Averages and records for this station are not official NWS values.
T = Trace of Precipitation, MM = Missing Value Source: NWS Daily Summary

Daily Weather History Graph

Daily Weather History Graph

Search for Another Location

Airport or City:

Trip Planner

Search our weather history database for the weather conditions in past years. The results will help you decide how hot, cold, wet, or windy it might be!

Date:

Astronomy

Mar. 21, 2013 Rise Set
Actual Time 7:56 AM CDT 8:06 PM CDT
Civil Twilight 7:31 AM CDT 8:30 PM CDT
Nautical Twilight 7:03 AM CDT 8:58 PM CDT
Astronomical Twilight 6:35 AM CDT 9:27 PM CDT
Moon 2:56 PM CDT (3/21) 4:01 AM CDT (3/21)
Length of Visible Light 12h 58m
Length of Day
12h 10m
Waxing Gibbous, 69% of the Moon is Illuminated
Mar 21
Waxing Gibbous
Mar 27
Full
Apr 2
Last Quarter
Apr 10
New
Apr 18
First Quarter

Hourly Weather History & Observations

Time (CDT) Temp. Windchill Dew Point Humidity Pressure Visibility Wind Dir Wind Speed Gust Speed Precip Events Conditions
12:15 AM 53.2 °F - 40.3 °F 61% 29.91 in 10.0 mi ESE 8.1 mph - N/A   Clear
12:35 AM 53.6 °F - 41.0 °F 62% 29.90 in 10.0 mi ESE 6.9 mph - N/A   Clear
1:15 AM 51.6 °F - 40.1 °F 65% 29.89 in 10.0 mi Calm Calm - N/A   Clear
1:35 AM 51.4 °F - 40.5 °F 66% 29.89 in 10.0 mi Calm Calm - N/A   Clear
1:55 AM 50.4 °F - 39.9 °F 67% 29.88 in 10.0 mi ESE 4.6 mph - N/A   Clear
2:15 AM 48.2 °F - 38.7 °F 70% 29.87 in 10.0 mi South 3.5 mph - N/A   Clear
2:35 AM 47.8 °F - 38.8 °F 71% 29.86 in 10.0 mi South 6.9 mph - N/A   Clear
2:55 AM 45.9 °F 42.9 °F 37.2 °F 72% 29.85 in 10.0 mi SSW 5.8 mph - N/A   Clear
3:15 AM 45.5 °F 42.5 °F 36.5 °F 71% 29.85 in 10.0 mi WSW 5.8 mph - N/A   Clear
3:35 AM 43.5 °F 40.1 °F 35.6 °F 74% 29.83 in 10.0 mi SSW 5.8 mph - N/A   Clear
3:55 AM 42.1 °F 38.4 °F 33.8 °F 72% 29.83 in 10.0 mi SW 5.8 mph - N/A   Clear
4:15 AM 41.5 °F 37.8 °F 33.1 °F 72% 29.81 in 10.0 mi SSW 5.8 mph - N/A   Clear
4:35 AM 41.2 °F - 32.9 °F 72% 29.80 in 10.0 mi Calm Calm - N/A   Clear
4:55 AM 42.1 °F 39.2 °F 33.1 °F 70% 29.79 in 10.0 mi WSW 4.6 mph - N/A   Clear
5:15 AM 43.7 °F - 33.4 °F 67% 29.78 in 10.0 mi Calm Calm - N/A   Clear
5:35 AM 43.9 °F - 33.1 °F 66% 29.78 in 10.0 mi Calm Calm - N/A   Clear
5:55 AM 43.9 °F - 32.9 °F 65% 29.78 in 10.0 mi Calm Calm - N/A   Clear
6:15 AM 43.5 °F - 32.5 °F 65% 29.77 in 10.0 mi Calm Calm - N/A   Clear
6:35 AM 42.3 °F - 32.2 °F 67% 29.77 in 10.0 mi Calm Calm - N/A   Clear
6:55 AM 41.9 °F - 32.0 °F 68% 29.76 in 10.0 mi Calm Calm - N/A   Clear
7:15 AM 42.3 °F 38.6 °F 33.1 °F 70% 29.76 in 10.0 mi SSW 5.8 mph - N/A   Clear
7:55 AM 42.3 °F 39.4 °F 33.1 °F 70% 29.76 in 10.0 mi SW 4.6 mph - N/A   Clear
8:15 AM 42.8 °F - 33.4 °F 70% 29.76 in 10.0 mi Calm Calm - N/A   Clear
9:35 AM 46.4 °F - 34.3 °F 63% 29.76 in 10.0 mi Calm Calm - N/A   Clear
9:55 AM 50.0 °F - 36.3 °F 59% 29.76 in 10.0 mi Calm Calm - N/A   Clear
10:15 AM 54.0 °F - 37.8 °F 54% 29.75 in 10.0 mi Calm Calm - N/A   Clear
11:15 AM 63.9 °F - 38.5 °F 39% 29.75 in 10.0 mi Calm Calm - N/A   Clear
11:55 AM 78.4 °F - 31.8 °F 18% 29.73 in 10.0 mi WSW 20.7 mph 26.5 mph N/A   Clear
12:15 PM 79.2 °F - 30.7 °F 17% 29.72 in 10.0 mi WSW 13.8 mph 25.3 mph N/A   Clear
1:35 PM 83.8 °F - 30.2 °F 14% 29.68 in 10.0 mi West 23.0 mph 32.2 mph N/A   Clear
3:15 PM 86.9 °F - 28.9 °F 12% 29.62 in 10.0 mi West 23.0 mph 39.1 mph N/A   Clear
5:55 PM 85.5 °F - 27.1 °F 12% 29.60 in 10.0 mi West 28.8 mph 36.8 mph N/A   Clear
6:35 PM 84.4 °F - 26.2 °F 12% 29.60 in 10.0 mi West 24.2 mph 32.2 mph N/A   Clear
6:55 PM 82.8 °F - 25.7 °F 12% 29.60 in 10.0 mi WSW 23.0 mph 31.1 mph N/A   Clear
7:15 PM 81.7 °F - 25.5 °F 13% 29.60 in 10.0 mi West 18.4 mph 28.8 mph N/A   Clear
7:35 PM 81.3 °F - 25.3 °F 13% 29.61 in 10.0 mi West 20.7 mph 24.2 mph N/A   Clear
8:35 PM 75.2 °F - 22.8 °F 14% 29.62 in 10.0 mi WSW 9.2 mph - N/A   Clear
9:15 PM 69.8 °F - 21.0 °F 16% 29.64 in 10.0 mi WSW 9.2 mph - N/A   Clear
9:35 PM 68.2 °F - 20.3 °F 16% 29.65 in 10.0 mi WSW 10.4 mph - N/A   Clear
9:55 PM 67.5 °F - 19.8 °F 16% 29.65 in 10.0 mi West 8.1 mph - N/A   Clear
10:55 PM 66.2 °F - 19.2 °F 17% 29.66 in 10.0 mi WSW 11.5 mph - N/A   Clear
11:15 PM 63.9 °F - 19.2 °F 18% 29.67 in 10.0 mi West 11.5 mph - N/A   Clear
11:35 PM 66.2 °F - 21.0 °F 18% 29.67 in 10.0 mi WSW 12.7 mph - N/A   Clear
11:55 PM 66.0 °F - 21.0 °F 18% 29.67 in 10.0 mi West 13.8 mph - N/A   Clear